Find Starlink 37748

NORAD ID: 100416 Int'l Des: 2026-192 Owner: SPXS Country: US Constellation: starlink operational

Aktuelle Ansicht

3D-Globus wird geladen...

About Starlink 37748

Starlink 37748 (NORAD 100416) is a starlink constellation satellite launched Aug 21, 2026 by SPXS of US. with a mass of 575.00 kg.

Nächste Überflüge

Passes for default location (London). Set your location on the main map for personalized predictions.

Höhenverlauf

Loading altitude history...

Zweizeiliger Elementsatz

1 A0416U 26192N 26262.94124844 -.00000688 00000-0 -43045-5 0 9990
2 A0416 53.1591 308.6594 0001412 61.0952 299.0198 15.49300424 5884
Epoch: 19. Sept. 2026 • Age: 18 hours

Aktueller Status

Höhe 430.1 km
Apogäum / Perigäum N/A
Geschwindigkeit 7.65 km/s
Subsatellitenpunkt -33.30°S, 93.89°W
Startdatum 21. Aug. 2026
Alter 30 days
Typ internet

Technische Details

Klassifizierung Payload
Masse 575.00 kg
Trockenmasse 530.00 kg
Länge 0.30 m
Spannweite 29.00 m
Form ? Box + pan
Hersteller SPXS
Bus-Typ Starlink V2MO
Phasenstatus In Orbit
Besitzer/Staat SPXS/US

Most Searched